Location: �chenoz-la-M�line
(47.6009°N, 6.1354°E)
Time: 08:24:11
(UTC+00:00)

STARLINK-2094 - Visible Passes

Search period start: 11 May 2021 00:00
Search period end: 21 May 2021 00:00
Orbit: 546 x 548 km, 53.1° (Epoch: 11 May)

Date Brightness Start Highest point End Pass type
(mag) Time Alt. Az. Time Alt. Az. Time Alt. Az.
11 May 3.7 19:58:13 10° WNW 20:02:22 76° NNE 20:06:08 12° ESE visible
11 May 4.9 21:38:08 10° W 21:41:34 26° SW 21:41:43 26° SW visible
12 May 3.6 19:51:54 10° WNW 19:56:03 90° W 19:59:58 11° ESE visible
12 May 5.3 21:32:04 10° W 21:35:08 20° SW 21:35:33 20° SW visible
13 May 3.7 19:45:36 10° WNW 19:49:43 74° SSW 19:53:49 10° SE visible
13 May 5.6 21:26:10 10° W 21:28:40 16° SW 21:29:25 15° SW visible
14 May 3.9 19:39:18 10° WNW 19:43:23 60° SW 19:47:26 10° SE visible
14 May 6.0 21:20:36 10° WSW 21:22:11 12° SW 21:23:20 11° SW visible
